Location: Banff
(51.1667°N, 115.5667°W)
Time: 12:21:44
(UTC+00:00)

Vanguard 1 Rocket - Pass Details

Date: 30 November 2020
Orbit: 655 x 4222 km, 34.3° (Epoch: 23 January)

Event Time Altitude Azimuth Distance (km) Brightness Sun altitude
Rises 13:24:33 0° 272° (W) 8,222 - -17.8°
Reaches altitude 10° 13:31:33 10° 264° (W) 6,828 - -16.7°
Exits shadow 13:33:35 13° 261° (W) 6,410 11.1 -16.4°
Maximum altitude 13:48:03 32° 213° (SSW) 3,874 10.4 -14.2°
Drops below altitude 10° 13:58:12 10° 155° (SSE) 4,172 11.4 -12.7°
Sets 14:01:17 0° 145° (SE) 4,759 12.0 -12.3°
